Regional Weather Roundup
Issued by NWS

Home | Current Version | Previous Version | Text Only | Print | Product List | Glossary On
Versions: 1 2 3 4 5 6 7 8 9 10 11 12 13 14 15 16 17 18 19 20 21 22 23 24 25 26 27 28 29 30 31 32 33 34 35 36 37 38 39 40 41 42 43 44 45 46 47 48 49 50
000
ASUS43 KFSD 291310
RWRSD

WEATHER ROUNDUP FOR SOUTH DAKOTA
NATIONAL WEATHER SERVICE SIOUX FALLS SD
800 AM CDT SUN MAY 29 2016

NOTE: "FAIR" INDICATES FEW OR NO CLOUDS BELOW 12,000 FEET WITH NO
SIGNIFICANT WEATHER AND/OR OBSTRUCTIONS TO VISIBILITY.


SDZ001>005-009-010-012>017-291400-
NORTHWEST AND NORTH CENTRAL SOUTH DAKOTA

CITY           SKY/WX    TMP DP  RH WIND       PRES   REMARKS
BUFFALO          N/A     50  43  77 W3        30.01R
FAITH            N/A     56  50  80 CALM      30.06R
MOBRIDGE       SUNNY     57  51  80 NW7       30.02R
$$

SDZ012>016-024>037-041>051-057-063-072>074-291400-
SOUTHWEST AND SOUTH CENTRAL SOUTH DAKOTA

CITY           SKY/WX    TMP DP  RH WIND       PRES   REMARKS
RAPID CTY ARPT CLOUDY    54  47  77 NW7       30.09R
PIERRE         SUNNY     55  53  93 SW7       30.05R
CUSTER         CLOUDY    44  41  89 CALM      30.15S
ELLSWORTH AFB  CLOUDY    53  50  90 SW2       30.08R
PHILIP         SUNNY     52  49  89 W3        30.07R
PINE RIDGE     SUNNY     44  42  93 CALM      30.10S
WINNER         FAIR      59  51  75 NW6       30.08R
$$

SDZ004>011-016>023-039-040-291400-
NORTHEAST SOUTH DAKOTA

CITY           SKY/WX    TMP DP  RH WIND       PRES   REMARKS
ABERDEEN       SUNNY     60  54  80 W9        29.99R
WATERTOWN      SUNNY     60  55  83 W8        29.98R
BROOKINGS      PTSUNNY   58  56  93 W9        30.00R FOG
SISSETON         N/A     64  57  78 NW5       29.94R
$$

SDZ017-020-022-023-036>040-048>070-291400-
SOUTHEAST SOUTH DAKOTA

CITY           SKY/WX    TMP DP  RH WIND       PRES   REMARKS
SIOUX FALLS    MOSUNNY   62  59  90 VRB3      30.02R
HURON          SUNNY     60  55  83 W5        30.02R
CHAMBERLAIN    SUNNY     58  57  95 W5        30.06R
MITCHELL       MOSUNNY   60  58  92 W5        30.03R
YANKTON        SUNNY     61  55  82 SW3       30.03R
$$

ABBREVIATIONS USED IN REMARKS
   TC - TEMPERATURE IN CELSIUS
  WCI - WIND CHILL INDEX
   HX - HEAT INDEX
  VSB - VISIBILITY





USA.gov is the U.S. government's official web portal to all federal, state and local government web resources and services.